| time (UTC) | temp C | wind direction | speed KPH | gust KPH | rain 1hr cm | rain 24hr cm | rain mn cm | humidity % | barometer mb |
| 20260504100503 | 12 | 45 | 4.8 | 0.0 | 0.00 | 1.09 | 0.00 | 84 | 1059.4 |
| 20260504100334 | 12 | 67 | 0.0 | 0.0 | 0.00 | 1.09 | 0.00 | 83 | 1059.4 |
| 20260504100222 | 12 | 22 | 1.6 | 0.0 | 0.00 | 1.09 | 0.00 | 83 | 1059.4 |
| 20260504100117 | 12 | 22 | 8.0 | 0.0 | 0.00 | 1.09 | 0.00 | 83 | 1059.4 |
| 20260504090108 | 13 | 22 | 6.4 | 0.0 | 0.00 | 1.09 | 0.00 | 80 | 1059.1 |
| 20260504081852 | 14 | 90 | 0.0 | 0.0 | 0.00 | 1.09 | 0.00 | 80 | 1058.5 |
| 20260504081739 | 14 | 90 | 0.0 | 0.0 | 0.00 | 1.09 | 0.00 | 80 | 1058.6 |
| 20260504081618 | 14 | 90 | 0.0 | 0.0 | 0.00 | 1.09 | 0.00 | 80 | 1058.6 |
| 20260504081505 | 14 | 90 | 0.0 | 0.0 | 0.00 | 1.09 | 0.00 | 81 | 1058.5 |
| 20260504081352 | 14 | 90 | 0.0 | 0.0 | 0.00 | 1.09 | 0.00 | 81 | 1058.6 |
| 20260504081238 | 14 | 90 | 0.0 | 0.0 | 0.00 | 1.09 | 0.00 | 81 | 1058.5 |
| 20260504081117 | 13 | 90 | 0.0 | 0.0 | 0.00 | 1.09 | 0.00 | 81 | 1058.5 |
| 20260504081003 | 13 | 90 | 0.0 | 0.0 | 0.00 | 1.09 | 0.00 | 81 | 1058.5 |
| 20260504080835 | 13 | 90 | 0.0 | 0.0 | 0.00 | 1.09 | 0.00 | 81 | 1058.5 |
| 20260504080722 | 13 | 90 | 4.8 | 0.0 | 0.00 | 1.09 | 0.00 | 82 | 1058.3 |
| 20260504080616 | 13 | 112 | 4.8 | 0.0 | 0.00 | 1.09 | 0.00 | 82 | 1058.4 |
| 20260504080504 | 13 | 112 | 0.0 | 0.0 | 0.00 | 1.09 | 0.00 | 82 | 1058.4 |
| 20260504080350 | 13 | 112 | 0.0 | 0.0 | 0.00 | 1.09 | 0.00 | 82 | 1058.4 |
| 20260504080229 | 13 | 112 | 0.0 | 0.0 | 0.00 | 1.09 | 0.00 | 82 | 1058.4 |
| 20260504080117 | 13 | 112 | 0.0 | 0.0 | 0.00 | 1.09 | 0.00 | 82 | 1058.4 |
| 20260504070302 | 11 | 45 | 0.0 | 0.0 | 0.00 | 1.09 | 0.00 | 87 | 1058.3 |
| 20260504070158 | 11 | 45 | 0.0 | 0.0 | 0.00 | 1.09 | 0.00 | 87 | 1058.3 |
| 20260504060158 | 11 | 67 | 0.0 | 0.0 | 0.00 | 1.09 | 0.00 | 89 | 1057.8 |
| 20260504050506 | 11 | 292 | 183.5 | 0.0 | 0.00 | 1.09 | 0.00 | 91 | 1057.4 |
| 20260504045821 | 11 | 292 | 0.0 | 0.0 | 0.00 | 1.09 | 0.00 | 91 | 1057.1 |
| 20260504045707 | 11 | 292 | 0.0 | 0.0 | 0.00 | 1.09 | 0.00 | 91 | 1057.3 |
| 20260504045538 | 10 | 292 | 0.0 | 0.0 | 0.00 | 1.09 | 0.00 | 91 | 1057.1 |
| 20260504045418 | 10 | 292 | 0.0 | 0.0 | 0.00 | 1.09 | 0.00 | 91 | 1057.2 |
| 20260504045314 | 10 | 292 | 0.0 | 0.0 | 0.00 | 1.09 | 0.00 | 91 | 1057.1 |
| 20260504045207 | 10 | 292 | 0.0 | 0.0 | 0.00 | 1.09 | 0.00 | 91 | 1057.2 |
| 20260504045053 | 10 | 292 | 0.0 | 0.0 | 0.00 | 1.09 | 0.00 | 91 | 1057.3 |
| 20260504044932 | 10 | 292 | 0.0 | 0.0 | 0.00 | 1.09 | 0.00 | 91 | 1057.3 |
| 20260504044804 | 10 | 292 | 0.0 | 0.0 | 0.00 | 1.09 | 0.00 | 91 | 1057.3 |
| 20260504044650 | 10 | 292 | 0.0 | 0.0 | 0.00 | 1.09 | 0.00 | 91 | 1057.3 |
| 20260504044539 | 10 | 292 | 0.0 | 0.0 | 0.00 | 1.09 | 0.00 | 91 | 1057.2 |
| 20260504044432 | 10 | 292 | 0.0 | 0.0 | 0.00 | 1.09 | 0.00 | 91 | 1057.3 |
| 20260504043930 | 10 | 292 | 183.5 | 0.0 | 0.00 | 1.09 | 0.00 | 91 | 1057.2 |
| 20260504043301 | 10 | 292 | 183.5 | 0.0 | 0.00 | 1.09 | 0.00 | 91 | 1057.1 |
| 20260504042630 | 10 | 292 | 8.0 | 0.0 | 0.00 | 1.09 | 0.00 | 91 | 1057.4 |
| 20260504042437 | 10 | 337 | 183.5 | 0.0 | 0.00 | 1.09 | 0.00 | 91 | 1057.1 |
| 20260504041751 | 10 | 337 | 183.5 | 0.0 | 0.00 | 1.09 | 0.00 | 91 | 1056.9 |
| 20260504041121 | 10 | 337 | 0.0 | 0.0 | 0.00 | 1.09 | 0.00 | 91 | 1056.9 |
| 20260504040958 | 10 | 337 | 0.0 | 0.0 | 0.00 | 1.09 | 0.00 | 91 | 1056.9 |
| 20260504040824 | 10 | 337 | 0.0 | 0.0 | 0.00 | 1.09 | 0.00 | 91 | 1056.9 |
| 20260504040717 | 10 | 337 | 0.0 | 0.0 | 0.00 | 1.09 | 0.00 | 91 | 1056.9 |
| 20260504040556 | 10 | 337 | 0.0 | 0.0 | 0.00 | 1.09 | 0.00 | 91 | 1056.9 |
| 20260504040434 | 10 | 337 | 0.0 | 0.0 | 0.00 | 1.09 | 0.00 | 91 | 1056.8 |
| 20260504040321 | 10 | 337 | 0.0 | 0.0 | 0.00 | 1.09 | 0.00 | 91 | 1056.8 |
| 20260504040201 | 10 | 337 | 0.0 | 0.0 | 0.00 | 1.09 | 0.00 | 91 | 1056.8 |
| 20260504040047 | 10 | 337 | 0.0 | 0.0 | 0.00 | 1.09 | 0.00 | 91 | 1056.8 |
| 20260504035928 | 10 | 337 | 0.0 | 0.0 | 0.00 | 1.09 | 0.00 | 91 | 1056.9 |
| 20260504035813 | 10 | 337 | 0.0 | 0.0 | 0.00 | 1.09 | 0.00 | 91 | 1056.8 |
| 20260504035652 | 10 | 337 | 0.0 | 0.0 | 0.00 | 1.09 | 0.00 | 91 | 1056.8 |
| 20260504035539 | 10 | 337 | 0.0 | 0.0 | 0.00 | 1.09 | 0.00 | 91 | 1056.7 |
| 20260504035427 | 10 | 337 | 0.0 | 0.0 | 0.00 | 1.09 | 0.00 | 91 | 1056.7 |
| 20260504035323 | 10 | 337 | 0.0 | 0.0 | 0.00 | 1.09 | 0.00 | 91 | 1056.7 |
| 20260504035215 | 10 | 337 | 0.0 | 0.0 | 0.00 | 1.09 | 0.00 | 91 | 1056.7 |
| 20260504035039 | 10 | 337 | 0.0 | 0.0 | 0.00 | 1.09 | 0.00 | 91 | 1056.8 |
| 20260504034935 | 10 | 337 | 0.0 | 0.0 | 0.00 | 1.09 | 0.00 | 91 | 1056.8 |
| 20260504034828 | 10 | 0 | 0.0 | 0.0 | 0.00 | 1.09 | 0.00 | 91 | 1056.9 |
| 20260504034707 | 10 | 0 | 0.0 | 0.0 | 0.00 | 1.09 | 0.00 | 91 | 1056.8 |
| 20260504034545 | 10 | 0 | 0.0 | 0.0 | 0.00 | 1.09 | 0.00 | 91 | 1056.8 |
| 20260504034425 | 10 | 0 | 0.0 | 0.0 | 0.00 | 1.09 | 0.00 | 91 | 1056.9 |
| 20260504034321 | 10 | 0 | 0.0 | 0.0 | 0.00 | 1.09 | 0.00 | 91 | 1056.9 |
| 20260504034216 | 10 | 337 | 0.0 | 0.0 | 0.00 | 1.09 | 0.00 | 91 | 1056.9 |
| 20260504034112 | 10 | 337 | 0.0 | 0.0 | 0.00 | 1.09 | 0.00 | 91 | 1056.9 |
| 20260504034005 | 10 | 337 | 0.0 | 0.0 | 0.00 | 1.09 | 0.00 | 91 | 1057.0 |
| 20260504033859 | 10 | 337 | 0.0 | 0.0 | 0.00 | 1.09 | 0.00 | 91 | 1056.9 |
| 20260504033746 | 10 | 337 | 0.0 | 0.0 | 0.00 | 1.09 | 0.00 | 91 | 1057.0 |
| 20260504033625 | 10 | 337 | 0.0 | 0.0 | 0.00 | 1.09 | 0.00 | 91 | 1057.0 |
| 20260504033505 | 10 | 337 | 0.0 | 0.0 | 0.00 | 1.09 | 0.00 | 91 | 1056.9 |
| 20260504033352 | 10 | 337 | 0.0 | 0.0 | 0.00 | 1.09 | 0.00 | 91 | 1057.1 |
| 20260504033247 | 10 | 337 | 0.0 | 0.0 | 0.00 | 1.09 | 0.00 | 91 | 1056.9 |
| 20260504033139 | 10 | 337 | 0.0 | 0.0 | 0.00 | 1.09 | 0.00 | 91 | 1057.0 |
| 20260504033027 | 10 | 337 | 0.0 | 0.0 | 0.00 | 1.09 | 0.00 | 91 | 1056.9 |
| 20260504032907 | 10 | 337 | 0.0 | 0.0 | 0.00 | 1.09 | 0.00 | 91 | 1056.9 |
| 20260504032752 | 10 | 337 | 0.0 | 0.0 | 0.00 | 1.09 | 0.00 | 91 | 1056.8 |
| 20260504032640 | 10 | 337 | 0.0 | 0.0 | 0.00 | 1.09 | 0.00 | 91 | 1056.8 |
| 20260504032535 | 10 | 337 | 0.0 | 0.0 | 0.00 | 1.09 | 0.00 | 91 | 1056.9 |
| 20260504032422 | 10 | 337 | 0.0 | 0.0 | 0.00 | 1.09 | 0.00 | 91 | 1056.8 |
| 20260504032308 | 10 | 0 | 0.0 | 0.0 | 0.00 | 1.09 | 0.00 | 91 | 1056.8 |
| 20260504032155 | 10 | 0 | 0.0 | 0.0 | 0.00 | 1.09 | 0.00 | 91 | 1056.8 |
| 20260504032043 | 10 | 0 | 0.0 | 0.0 | 0.00 | 1.09 | 0.00 | 91 | 1056.7 |
| 20260504031938 | 10 | 22 | 0.0 | 0.0 | 0.00 | 1.09 | 0.00 | 91 | 1056.8 |
| 20260504031833 | 10 | 22 | 0.0 | 0.0 | 0.00 | 1.09 | 0.00 | 91 | 1056.8 |
| 20260504031719 | 10 | 0 | 0.0 | 0.0 | 0.00 | 1.09 | 0.00 | 91 | 1056.7 |
| 20260504031600 | 10 | 337 | 0.0 | 0.0 | 0.00 | 1.09 | 0.00 | 91 | 1056.8 |
| 20260504031455 | 10 | 337 | 0.0 | 0.0 | 0.00 | 1.09 | 0.00 | 91 | 1056.7 |
| 20260504031349 | 10 | 337 | 0.0 | 0.0 | 0.00 | 1.09 | 0.00 | 91 | 1056.7 |
| 20260504031235 | 10 | 22 | 0.0 | 0.0 | 0.00 | 1.09 | 0.00 | 91 | 1056.7 |
| 20260504031123 | 10 | 0 | 0.0 | 0.0 | 0.00 | 1.09 | 0.00 | 91 | 1056.7 |
| 20260504031017 | 10 | 0 | 0.0 | 0.0 | 0.00 | 1.09 | 0.00 | 91 | 1056.7 |
| 20260504030858 | 10 | 22 | 0.0 | 0.0 | 0.00 | 1.09 | 0.00 | 91 | 1056.5 |
| 20260504030750 | 10 | 22 | 1.6 | 0.0 | 0.00 | 1.09 | 0.00 | 91 | 1056.7 |
| 20260504030638 | 10 | 337 | 0.0 | 0.0 | 0.00 | 1.09 | 0.00 | 91 | 1056.7 |
| 20260504030533 | 10 | 337 | 0.0 | 0.0 | 0.00 | 1.09 | 0.00 | 91 | 1056.6 |
| 20260504030428 | 10 | 337 | 0.0 | 0.0 | 0.00 | 1.09 | 0.00 | 91 | 1056.7 |
| 20260504030314 | 10 | 337 | 0.0 | 0.0 | 0.00 | 1.09 | 0.00 | 91 | 1056.5 |
| 20260504030200 | 10 | 0 | 0.0 | 0.0 | 0.00 | 1.09 | 0.00 | 91 | 1056.6 |
| 20260504030031 | 10 | 0 | 0.0 | 0.0 | 0.00 | 1.09 | 0.00 | 92 | 1056.6 |
| 20260504025918 | 10 | 0 | 0.0 | 0.0 | 0.00 | 1.55 | 0.00 | 92 | 1056.5 |
| 20260504025805 | 10 | 0 | 0.0 | 0.0 | 0.00 | 1.55 | 0.00 | 92 | 1056.6 |
| 20260504025636 | 10 | 0 | 0.0 | 0.0 | 0.00 | 1.55 | 0.00 | 91 | 1056.7 |
| 20260504025523 | 10 | 337 | 0.0 | 0.0 | 0.00 | 1.55 | 0.00 | 92 | 1056.6 |
| 20260504025410 | 10 | 337 | 0.0 | 0.0 | 0.00 | 1.55 | 0.00 | 92 | 1056.6 |
| 20260504025305 | 10 | 337 | 0.0 | 0.0 | 0.00 | 1.55 | 0.00 | 92 | 1056.6 |
| 20260504025151 | 10 | 337 | 0.0 | 0.0 | 0.00 | 1.55 | 0.00 | 92 | 1056.6 |
| 20260504025030 | 10 | 315 | 0.0 | 0.0 | 0.00 | 1.55 | 0.00 | 92 | 1056.7 |
| 20260504024917 | 10 | 337 | 0.0 | 0.0 | 0.00 | 1.55 | 0.00 | 92 | 1056.8 |
| 20260504024756 | 10 | 337 | 0.0 | 0.0 | 0.00 | 1.55 | 0.00 | 92 | 1056.8 |
| 20260504024635 | 10 | 337 | 0.0 | 0.0 | 0.00 | 1.55 | 0.00 | 92 | 1056.8 |
| 20260504024507 | 11 | 337 | 0.0 | 0.0 | 0.00 | 1.55 | 0.00 | 92 | 1056.8 |
| 20260504024401 | 11 | 337 | 0.0 | 0.0 | 0.00 | 1.55 | 0.00 | 92 | 1056.8 |
| 20260504024246 | 11 | 337 | 0.0 | 0.0 | 0.00 | 1.55 | 0.00 | 92 | 1056.8 |
| 20260504024120 | 11 | 337 | 0.0 | 0.0 | 0.00 | 1.55 | 0.00 | 92 | 1056.8 |
| 20260504024012 | 11 | 337 | 0.0 | 0.0 | 0.00 | 1.55 | 0.00 | 92 | 1056.8 |
| 20260504023859 | 11 | 337 | 0.0 | 0.0 | 0.00 | 1.55 | 0.00 | 92 | 1056.8 |
| 20260504023747 | 11 | 337 | 0.0 | 0.0 | 0.00 | 1.55 | 0.00 | 92 | 1056.7 |
| 20260504023636 | 11 | 337 | 0.0 | 0.0 | 0.00 | 1.55 | 0.00 | 92 | 1056.7 |
| 20260504023530 | 11 | 337 | 0.0 | 0.0 | 0.00 | 1.55 | 0.00 | 92 | 1056.7 |
| 20260504023415 | 11 | 337 | 0.0 | 0.0 | 0.00 | 1.55 | 0.00 | 92 | 1056.6 |
| 20260504023255 | 11 | 0 | 0.0 | 0.0 | 0.00 | 1.55 | 0.00 | 92 | 1056.6 |
| 20260504023141 | 11 | 337 | 0.0 | 0.0 | 0.00 | 1.55 | 0.00 | 92 | 1056.6 |
| 20260504023027 | 11 | 337 | 0.0 | 0.0 | 0.00 | 1.55 | 0.00 | 92 | 1056.6 |
| 20260504022906 | 11 | 0 | 0.0 | 0.0 | 0.00 | 1.55 | 0.00 | 92 | 1056.6 |
| 20260504022745 | 11 | 0 | 0.0 | 0.0 | 0.00 | 1.55 | 0.00 | 92 | 1056.6 |
| 20260504022632 | 11 | 337 | 0.0 | 0.0 | 0.00 | 1.55 | 0.00 | 92 | 1056.5 |
| 20260504022518 | 11 | 337 | 0.0 | 0.0 | 0.00 | 1.55 | 0.00 | 92 | 1056.5 |
| 20260504022400 | 11 | 0 | 0.0 | 0.0 | 0.00 | 1.55 | 0.00 | 92 | 1056.5 |
| 20260504022252 | 11 | 315 | 0.0 | 0.0 | 0.00 | 1.55 | 0.00 | 92 | 1056.6 |
| 20260504022140 | 11 | 315 | 0.0 | 0.0 | 0.00 | 1.55 | 0.00 | 92 | 1056.6 |
| 20260504022035 | 11 | 337 | 0.0 | 0.0 | 0.00 | 1.55 | 0.00 | 92 | 1056.6 |
| 20260504021930 | 11 | 337 | 0.0 | 0.0 | 0.00 | 1.55 | 0.00 | 92 | 1056.6 |
| 20260504021825 | 11 | 315 | 0.0 | 0.0 | 0.00 | 1.55 | 0.00 | 92 | 1056.6 |
| 20260504021707 | 11 | 315 | 1.6 | 0.0 | 0.00 | 1.55 | 0.00 | 92 | 1056.6 |
| 20260504021558 | 11 | 315 | 0.0 | 0.0 | 0.00 | 1.55 | 0.00 | 92 | 1056.5 |
| 20260504021437 | 11 | 337 | 0.0 | 0.0 | 0.00 | 1.55 | 0.00 | 92 | 1056.5 |
| 20260504021318 | 11 | 315 | 0.0 | 0.0 | 0.00 | 1.55 | 0.00 | 92 | 1056.6 |
| 20260504021210 | 11 | 315 | 0.0 | 0.0 | 0.00 | 1.55 | 0.00 | 92 | 1056.6 |
| 20260504021049 | 11 | 337 | 0.0 | 0.0 | 0.00 | 1.55 | 0.00 | 92 | 1056.6 |
| 20260504020928 | 11 | 315 | 0.0 | 0.0 | 0.00 | 1.55 | 0.00 | 92 | 1056.6 |
| 20260504020758 | 11 | 337 | 0.0 | 0.0 | 0.00 | 1.55 | 0.00 | 92 | 1056.6 |
| 20260504020637 | 11 | 0 | 1.6 | 0.0 | 0.00 | 1.55 | 0.00 | 92 | 1056.5 |
| 20260504020527 | 11 | 0 | 0.0 | 0.0 | 0.00 | 1.55 | 0.00 | 92 | 1056.5 |
| 20260504020419 | 11 | 315 | 0.0 | 0.0 | 0.00 | 1.55 | 0.00 | 92 | 1056.5 |
| 20260504020306 | 11 | 315 | 0.0 | 0.0 | 0.00 | 1.55 | 0.00 | 92 | 1056.6 |
| 20260504020153 | 11 | 0 | 0.0 | 0.0 | 0.00 | 1.55 | 0.00 | 92 | 1056.5 |
| 20260504020040 | 11 | 337 | 0.0 | 0.0 | 0.00 | 1.55 | 0.00 | 92 | 1056.5 |
| 20260504015927 | 11 | 337 | 0.0 | 0.0 | 0.00 | 1.55 | 0.00 | 92 | 1056.5 |
| 20260504015822 | 11 | 315 | 0.0 | 0.0 | 0.00 | 1.55 | 0.00 | 92 | 1056.5 |
| 20260504015718 | 11 | 315 | 4.8 | 0.0 | 0.00 | 1.55 | 0.00 | 92 | 1056.5 |
| 20260504015612 | 11 | 292 | 1.6 | 0.0 | 0.00 | 1.55 | 0.00 | 92 | 1056.4 |
| 20260504015450 | 11 | 315 | 0.0 | 0.0 | 0.00 | 1.55 | 0.00 | 92 | 1056.4 |
| 20260504015320 | 11 | 315 | 0.0 | 0.0 | 0.00 | 1.55 | 0.00 | 92 | 1056.4 |
| 20260504015151 | 11 | 315 | 0.0 | 0.0 | 0.00 | 1.55 | 0.00 | 92 | 1056.4 |
| 20260504015045 | 11 | 315 | 0.0 | 0.0 | 0.00 | 1.55 | 0.00 | 92 | 1056.4 |
| 20260504014935 | 11 | 315 | 0.0 | 0.0 | 0.00 | 1.55 | 0.00 | 92 | 1056.4 |
| 20260504014827 | 11 | 315 | 0.0 | 0.0 | 0.00 | 1.55 | 0.00 | 92 | 1056.4 |
| 20260504014658 | 11 | 315 | 0.0 | 0.0 | 0.00 | 1.55 | 0.00 | 92 | 1056.4 |
| 20260504014553 | 11 | 315 | 0.0 | 0.0 | 0.00 | 1.55 | 0.00 | 92 | 1056.4 |
| 20260504014440 | 11 | 0 | 0.0 | 0.0 | 0.00 | 1.55 | 0.00 | 92 | 1056.4 |
| 20260504014319 | 11 | 315 | 0.0 | 0.0 | 0.00 | 1.55 | 0.00 | 92 | 1056.4 |
| 20260504014205 | 11 | 315 | 0.0 | 0.0 | 0.00 | 1.55 | 0.00 | 92 | 1056.4 |
| 20260504014044 | 11 | 315 | 0.0 | 0.0 | 0.00 | 1.55 | 0.00 | 92 | 1056.4 |
| 20260504013931 | 11 | 315 | 0.0 | 0.0 | 0.00 | 1.55 | 0.00 | 92 | 1056.4 |
| 20260504013818 | 11 | 315 | 8.0 | 0.0 | 0.00 | 1.55 | 0.00 | 92 | 1056.4 |
| 20260504013711 | 11 | 292 | 3.2 | 0.0 | 0.00 | 1.55 | 0.00 | 92 | 1056.4 |
| 20260504013551 | 11 | 292 | 0.0 | 0.0 | 0.00 | 1.55 | 0.00 | 92 | 1056.5 |
| 20260504013447 | 11 | 315 | 0.0 | 0.0 | 0.00 | 1.55 | 0.00 | 92 | 1056.4 |
| 20260504013323 | 11 | 315 | 0.0 | 0.0 | 0.00 | 1.55 | 0.00 | 92 | 1056.4 |
| 20260504013209 | 11 | 315 | 0.0 | 0.0 | 0.00 | 1.55 | 0.00 | 92 | 1056.4 |
| 20260504013057 | 11 | 315 | 0.0 | 0.0 | 0.00 | 1.55 | 0.00 | 92 | 1056.4 |
| 20260504012941 | 11 | 292 | 0.0 | 0.0 | 0.00 | 1.55 | 0.00 | 92 | 1056.5 |
| 20260504012828 | 11 | 315 | 0.0 | 0.0 | 0.00 | 1.55 | 0.00 | 92 | 1056.5 |
| 20260504012714 | 11 | 315 | 0.0 | 0.0 | 0.00 | 1.55 | 0.00 | 92 | 1056.4 |
| 20260504012553 | 11 | 337 | 0.0 | 0.0 | 0.00 | 1.55 | 0.00 | 92 | 1056.5 |
| 20260504012438 | 11 | 337 | 0.0 | 0.0 | 0.00 | 1.55 | 0.00 | 92 | 1056.4 |
| 20260504012319 | 11 | 337 | 0.0 | 0.0 | 0.00 | 1.55 | 0.00 | 92 | 1056.5 |
| 20260504012205 | 11 | 315 | 0.0 | 0.0 | 0.00 | 1.55 | 0.00 | 92 | 1056.5 |
| 20260504012053 | 11 | 315 | 0.0 | 0.0 | 0.00 | 1.55 | 0.00 | 92 | 1056.4 |
| 20260504011947 | 11 | 315 | 0.0 | 0.0 | 0.00 | 1.55 | 0.00 | 92 | 1056.4 |
| 20260504011834 | 11 | 315 | 0.0 | 0.0 | 0.00 | 1.55 | 0.00 | 92 | 1056.4 |
| 20260504011705 | 11 | 0 | 0.0 | 0.0 | 0.00 | 1.55 | 0.00 | 92 | 1056.3 |
| 20260504011544 | 11 | 0 | 0.0 | 0.0 | 0.00 | 1.55 | 0.00 | 92 | 1056.3 |
| 20260504011421 | 11 | 337 | 0.0 | 0.0 | 0.00 | 1.55 | 0.00 | 92 | 1056.3 |
| 20260504011300 | 11 | 337 | 1.6 | 0.0 | 0.00 | 1.55 | 0.00 | 92 | 1056.3 |
| 20260504011138 | 11 | 337 | 4.8 | 0.0 | 0.00 | 1.55 | 0.00 | 92 | 1056.4 |
| 20260504011032 | 11 | 292 | 0.0 | 0.0 | 0.00 | 1.55 | 0.00 | 92 | 1056.3 |
| 20260504010926 | 11 | 292 | 0.0 | 0.0 | 0.00 | 1.55 | 0.00 | 92 | 1056.3 |
| 20260504010804 | 11 | 292 | 4.8 | 0.0 | 0.00 | 1.55 | 0.00 | 92 | 1056.4 |
| 20260504010651 | 11 | 292 | 0.0 | 0.0 | 0.00 | 1.55 | 0.00 | 92 | 1056.3 |
| 20260504010537 | 11 | 315 | 0.0 | 0.0 | 0.00 | 1.55 | 0.00 | 92 | 1056.3 |
| 20260504010432 | 11 | 292 | 1.6 | 0.0 | 0.00 | 1.55 | 0.00 | 92 | 1056.3 |
| 20260504010327 | 11 | 270 | 0.0 | 0.0 | 0.00 | 1.55 | 0.00 | 92 | 1056.2 |
| 20260504005906 | 11 | 292 | 0.0 | 0.0 | 0.00 | 1.55 | 0.00 | 92 | 1056.2 |
| 20260504005737 | 11 | 292 | 0.0 | 0.0 | 0.00 | 1.55 | 0.00 | 92 | 1056.2 |
| 20260504005624 | 11 | 315 | 0.0 | 0.0 | 0.00 | 1.55 | 0.00 | 92 | 1056.2 |
| 20260504005511 | 11 | 270 | 9.7 | 0.0 | 0.00 | 1.55 | 0.00 | 92 | 1056.1 |
| 20260504005407 | 11 | 337 | 0.0 | 0.0 | 0.00 | 1.55 | 0.00 | 92 | 1056.2 |
| 20260504005243 | 11 | 292 | 0.0 | 0.0 | 0.00 | 1.55 | 0.00 | 92 | 1056.1 |
| 20260504005130 | 11 | 315 | 4.8 | 0.0 | 0.00 | 1.55 | 0.00 | 92 | 1056.1 |
| 20260504005009 | 11 | 315 | 3.2 | 0.0 | 0.00 | 1.55 | 0.00 | 92 | 1056.0 |
| 20260504004904 | 11 | 315 | 0.0 | 0.0 | 0.00 | 1.55 | 0.00 | 92 | 1056.0 |
| 20260504004742 | 11 | 315 | 3.2 | 0.0 | 0.00 | 1.55 | 0.00 | 92 | 1056.1 |
| 20260504004628 | 11 | 315 | 0.0 | 0.0 | 0.00 | 1.55 | 0.00 | 92 | 1056.2 |
| 20260504004515 | 11 | 315 | 1.6 | 0.0 | 0.00 | 1.55 | 0.00 | 92 | 1056.2 |
| 20260504004403 | 11 | 337 | 6.4 | 0.0 | 0.00 | 1.55 | 0.00 | 92 | 1056.2 |
| 20260504004249 | 11 | 315 | 0.0 | 0.0 | 0.00 | 1.55 | 0.00 | 92 | 1056.1 |
| 20260504004128 | 11 | 315 | 0.0 | 0.0 | 0.00 | 1.55 | 0.00 | 92 | 1056.1 |
| 20260504004015 | 11 | 315 | 3.2 | 0.0 | 0.00 | 1.55 | 0.00 | 92 | 1056.1 |
| 20260504003900 | 11 | 292 | 1.6 | 0.0 | 0.00 | 1.55 | 0.00 | 92 | 1056.1 |
| 20260504003742 | 11 | 315 | 0.0 | 0.0 | 0.00 | 1.55 | 0.00 | 92 | 1056.1 |
| 20260504003633 | 11 | 315 | 0.0 | 0.0 | 0.00 | 1.55 | 0.00 | 92 | 1056.0 |
| 20260504003505 | 11 | 315 | 1.6 | 0.0 | 0.00 | 1.55 | 0.00 | 92 | 1056.0 |
| 20260504003352 | 11 | 315 | 9.7 | 0.0 | 0.00 | 1.55 | 0.00 | 92 | 1056.0 |
| 20260504003238 | 11 | 315 | 0.0 | 0.0 | 0.00 | 1.55 | 0.00 | 92 | 1056.0 |
| 20260504003125 | 11 | 337 | 11.3 | 0.0 | 0.00 | 1.55 | 0.00 | 92 | 1056.0 |
| 20260504003004 | 11 | 315 | 0.0 | 0.0 | 0.00 | 1.55 | 0.00 | 92 | 1056.0 |
| 20260504002843 | 11 | 337 | 3.2 | 0.0 | 0.00 | 1.55 | 0.00 | 92 | 1056.0 |
| 20260504002730 | 11 | 315 | 3.2 | 0.0 | 0.00 | 1.55 | 0.00 | 92 | 1056.0 |
| 20260504002625 | 11 | 315 | 3.2 | 0.0 | 0.00 | 1.55 | 0.00 | 92 | 1056.0 |
| 20260504002514 | 11 | 315 | 14.5 | 0.0 | 0.00 | 1.55 | 0.00 | 92 | 1056.0 |
| 20260504002407 | 11 | 292 | 12.9 | 0.0 | 0.00 | 1.55 | 0.00 | 92 | 1056.0 |
| 20260504002255 | 11 | 315 | 4.8 | 0.0 | 0.00 | 1.55 | 0.00 | 92 | 1056.0 |
| 20260504002151 | 11 | 270 | 0.0 | 0.0 | 0.00 | 1.55 | 0.00 | 92 | 1056.0 |
| 20260504002045 | 11 | 292 | 3.2 | 0.0 | 0.00 | 1.55 | 0.00 | 92 | 1055.9 |
| 20260504001939 | 11 | 292 | 0.0 | 0.0 | 0.00 | 1.55 | 0.00 | 92 | 1055.9 |
| 20260504001834 | 11 | 292 | 11.3 | 0.0 | 0.00 | 1.55 | 0.00 | 92 | 1056.0 |
| 20260504001721 | 11 | 315 | 12.9 | 0.0 | 0.00 | 1.55 | 0.00 | 92 | 1056.0 |
| 20260504001606 | 11 | 315 | 0.0 | 0.0 | 0.00 | 1.55 | 0.00 | 92 | 1056.0 |
| 20260504001446 | 11 | 315 | 12.9 | 0.0 | 0.00 | 1.55 | 0.00 | 92 | 1055.9 |
| 20260504001333 | 11 | 292 | 8.0 | 0.0 | 0.00 | 1.55 | 0.00 | 92 | 1055.9 |
| 20260504001219 | 11 | 292 | 6.4 | 0.0 | 0.00 | 1.55 | 0.00 | 92 | 1055.9 |
| 20260504001108 | 11 | 292 | 6.4 | 0.0 | 0.00 | 1.55 | 0.00 | 93 | 1055.9 |
| 20260504001001 | 11 | 315 | 3.2 | 0.0 | 0.00 | 1.55 | 0.00 | 92 | 1056.0 |
| 20260504000840 | 11 | 292 | 0.0 | 0.0 | 0.00 | 1.55 | 0.00 | 92 | 1055.8 |
| 20260504000721 | 12 | 292 | 9.7 | 0.0 | 0.00 | 1.55 | 0.00 | 92 | 1055.8 |
| 20260504000613 | 12 | 315 | 17.7 | 0.0 | 0.00 | 1.55 | 0.00 | 93 | 1055.8 |
| 20260504000504 | 12 | 315 | 3.2 | 0.0 | 0.00 | 1.55 | 0.00 | 92 | 1055.8 |
| 20260504000357 | 12 | 315 | 6.4 | 0.0 | 0.00 | 1.55 | 0.00 | 92 | 1055.8 |
| 20260504000253 | 12 | 270 | 6.4 | 0.0 | 0.00 | 1.55 | 0.00 | 92 | 1055.7 |
| 20260504000146 | 12 | 292 | 8.0 | 0.0 | 0.00 | 1.55 | 0.00 | 92 | 1055.8 |
| 20260504000024 | 12 | 315 | 0.0 | 0.0 | 0.00 | 1.55 | 0.00 | 92 | 1055.7 |
| 20260503235904 | 12 | 270 | 0.0 | 0.0 | 0.00 | 1.55 | 0.00 | 92 | 1055.8 |
| 20260503235753 | 12 | 292 | 0.0 | 0.0 | 0.00 | 1.55 | 0.00 | 92 | 1055.7 |
| 20260503235646 | 12 | 292 | 0.0 | 0.0 | 0.00 | 1.55 | 0.00 | 92 | 1055.7 |
| 20260503235540 | 12 | 315 | 11.3 | 0.0 | 0.00 | 1.55 | 0.00 | 92 | 1055.7 |
| 20260503235421 | 12 | 315 | 3.2 | 0.0 | 0.00 | 1.55 | 0.00 | 92 | 1055.7 |
| 20260503235314 | 12 | 315 | 0.0 | 0.0 | 0.00 | 1.55 | 0.00 | 92 | 1055.7 |
| 20260503235201 | 12 | 337 | 9.7 | 0.0 | 0.00 | 1.55 | 0.00 | 92 | 1055.7 |
| 20260503235048 | 12 | 315 | 0.0 | 0.0 | 0.00 | 1.55 | 0.00 | 92 | 1055.7 |
| 20260503234934 | 12 | 292 | 0.0 | 0.0 | 0.00 | 1.55 | 0.00 | 92 | 1055.7 |
| 20260503234823 | 12 | 315 | 9.7 | 0.0 | 0.00 | 1.55 | 0.00 | 92 | 1055.7 |
| 20260503234717 | 12 | 315 | 9.7 | 0.0 | 0.00 | 1.55 | 0.00 | 92 | 1055.7 |
| 20260503234603 | 12 | 292 | 9.7 | 0.0 | 0.00 | 1.55 | 0.00 | 92 | 1055.7 |
| 20260503234451 | 12 | 337 | 0.0 | 0.0 | 0.00 | 1.55 | 0.00 | 92 | 1055.8 |
| 20260503234338 | 12 | 292 | 9.7 | 0.0 | 0.00 | 1.55 | 0.00 | 92 | 1055.7 |
| 20260503234225 | 12 | 270 | 3.2 | 0.0 | 0.00 | 1.55 | 0.00 | 92 | 1055.8 |
| 20260503234118 | 12 | 315 | 0.0 | 0.0 | 0.00 | 1.55 | 0.00 | 92 | 1055.8 |
| 20260503234007 | 12 | 270 | 1.6 | 0.0 | 0.00 | 1.55 | 0.00 | 92 | 1055.7 |
| 20260503233845 | 12 | 292 | 9.7 | 0.0 | 0.00 | 1.55 | 0.00 | 92 | 1055.8 |
| 20260503233725 | 12 | 315 | 6.4 | 0.0 | 0.00 | 1.55 | 0.00 | 92 | 1055.8 |
| 20260503233619 | 12 | 225 | 0.0 | 0.0 | 0.00 | 1.55 | 0.00 | 92 | 1055.8 |
| 20260503233506 | 12 | 292 | 22.5 | 0.0 | 0.00 | 1.55 | 0.00 | 92 | 1055.8 |
| 20260503233401 | 12 | 292 | 12.9 | 0.0 | 0.00 | 1.55 | 0.00 | 92 | 1055.8 |
| 20260503233239 | 12 | 270 | 8.0 | 0.0 | 0.00 | 1.55 | 0.00 | 92 | 1055.8 |
| 20260503233118 | 12 | 270 | 9.7 | 0.0 | 0.00 | 1.55 | 0.00 | 92 | 1055.8 |
| 20260503233004 | 12 | 292 | 14.5 | 0.0 | 0.00 | 1.55 | 0.00 | 92 | 1055.7 |
| 20260503232845 | 12 | 292 | 1.6 | 0.0 | 0.00 | 1.55 | 0.00 | 92 | 1055.7 |
| 20260503232740 | 12 | 292 | 0.0 | 0.0 | 0.00 | 1.55 | 0.00 | 92 | 1055.7 |
| 20260503232636 | 12 | 315 | 0.0 | 0.0 | 0.00 | 1.55 | 0.00 | 92 | 1055.7 |
| 20260503232528 | 12 | 315 | 0.0 | 0.0 | 0.00 | 1.55 | 0.00 | 92 | 1055.7 |
| 20260503232416 | 12 | 292 | 0.0 | 0.0 | 0.00 | 1.55 | 0.00 | 92 | 1055.7 |
| 20260503232311 | 12 | 292 | 8.0 | 0.0 | 0.00 | 1.55 | 0.00 | 92 | 1055.7 |
| 20260503232206 | 12 | 315 | 6.4 | 0.0 | 0.00 | 1.55 | 0.00 | 92 | 1055.7 |
| 20260503232053 | 12 | 315 | 0.0 | 0.0 | 0.00 | 1.55 | 0.00 | 92 | 1055.6 |
| 20260503231947 | 12 | 292 | 0.0 | 0.0 | 0.00 | 1.55 | 0.00 | 92 | 1055.7 |
| 20260503231826 | 12 | 292 | 0.0 | 0.0 | 0.00 | 1.55 | 0.00 | 91 | 1055.7 |
| 20260503231713 | 12 | 315 | 19.3 | 0.0 | 0.00 | 1.55 | 0.00 | 91 | 1055.6 |
| 20260503231551 | 12 | 315 | 11.3 | 0.0 | 0.00 | 1.55 | 0.00 | 91 | 1055.6 |
| 20260503231430 | 12 | 315 | 11.3 | 0.0 | 0.00 | 1.55 | 0.00 | 91 | 1055.6 |
| 20260503231310 | 12 | 315 | 1.6 | 0.0 | 0.00 | 1.55 | 0.00 | 91 | 1055.5 |
| 20260503231205 | 12 | 292 | 17.7 | 0.0 | 0.00 | 1.55 | 0.00 | 91 | 1055.5 |
| 20260503231051 | 12 | 292 | 6.4 | 0.0 | 0.00 | 1.55 | 0.00 | 91 | 1055.5 |
| 20260503230929 | 12 | 315 | 8.0 | 0.0 | 0.00 | 1.55 | 0.00 | 91 | 1055.5 |
| 20260503230811 | 12 | 315 | 6.4 | 0.0 | 0.00 | 1.55 | 0.00 | 91 | 1055.5 |
| 20260503230704 | 12 | 315 | 6.4 | 0.0 | 0.00 | 1.55 | 0.00 | 91 | 1055.5 |
| 20260503230550 | 12 | 292 | 11.3 | 0.0 | 0.00 | 1.55 | 0.00 | 92 | 1055.5 |
| 20260503230431 | 12 | 292 | 11.3 | 0.0 | 0.00 | 1.55 | 0.00 | 92 | 1055.5 |
| 20260503230316 | 12 | 292 | 6.4 | 0.0 | 0.00 | 1.55 | 0.00 | 92 | 1055.4 |
| 20260503230155 | 12 | 315 | 11.3 | 0.0 | 0.00 | 1.55 | 0.00 | 92 | 1055.4 |
| 20260503230036 | 12 | 270 | 9.7 | 0.0 | 0.00 | 1.55 | 0.00 | 92 | 1055.5 |
| 20260503225931 | 12 | 292 | 1.6 | 0.0 | 0.00 | 1.55 | 0.00 | 92 | 1055.4 |
| 20260503225824 | 12 | 270 | 11.3 | 0.0 | 0.00 | 1.55 | 0.00 | 92 | 1055.4 |
| 20260503225710 | 12 | 292 | 8.0 | 0.0 | 0.00 | 1.55 | 0.00 | 92 | 1055.5 |
| 20260503225557 | 12 | 292 | 17.7 | 0.0 | 0.00 | 1.55 | 0.00 | 92 | 1055.5 |
| 20260503225447 | 12 | 270 | 8.0 | 0.0 | 0.00 | 1.55 | 0.00 | 92 | 1055.5 |
| 20260503225341 | 12 | 270 | 3.2 | 0.0 | 0.00 | 1.55 | 0.00 | 92 | 1055.6 |
| 20260503225236 | 12 | 292 | 9.7 | 0.0 | 0.00 | 1.55 | 0.00 | 92 | 1055.5 |
| 20260503225130 | 12 | 292 | 9.7 | 0.0 | 0.00 | 1.55 | 0.00 | 92 | 1055.5 |
| 20260503225025 | 12 | 292 | 14.5 | 0.0 | 0.00 | 1.55 | 0.00 | 93 | 1055.6 |
| 20260503224919 | 12 | 270 | 0.0 | 0.0 | 0.00 | 1.55 | 0.00 | 93 | 1055.5 |
| 20260503224758 | 12 | 247 | 9.7 | 0.0 | 0.00 | 1.55 | 0.00 | 92 | 1055.5 |
| 20260503224636 | 12 | 315 | 17.7 | 0.0 | 0.00 | 1.55 | 0.00 | 92 | 1055.5 |
| 20260503224509 | 12 | 270 | 8.0 | 0.0 | 0.00 | 1.55 | 0.00 | 93 | 1055.5 |
| 20260503224404 | 12 | 270 | 11.3 | 0.0 | 0.00 | 1.55 | 0.00 | 93 | 1055.5 |
| 20260503224257 | 12 | 247 | 24.1 | 0.0 | 0.00 | 1.55 | 0.00 | 93 | 1055.5 |
| 20260503224145 | 12 | 315 | 14.5 | 0.0 | 0.00 | 1.55 | 0.00 | 93 | 1055.5 |
| 20260503224034 | 12 | 292 | 12.9 | 0.0 | 0.00 | 1.55 | 0.00 | 93 | 1055.5 |
| 20260503223918 | 12 | 292 | 16.1 | 0.0 | 0.00 | 1.55 | 0.00 | 93 | 1055.4 |
| 20260503223813 | 12 | 292 | 9.7 | 0.0 | 0.00 | 1.55 | 0.00 | 93 | 1055.4 |
| 20260503223659 | 12 | 315 | 19.3 | 0.0 | 0.00 | 1.55 | 0.00 | 93 | 1055.4 |
| 20260503223547 | 12 | 22 | 4.8 | 0.0 | 0.00 | 1.55 | 0.00 | 93 | 1055.4 |
| 20260503223434 | 12 | 270 | 9.7 | 0.0 | 0.00 | 1.55 | 0.00 | 93 | 1055.4 |
| 20260503223321 | 12 | 337 | 6.4 | 0.0 | 0.00 | 1.55 | 0.00 | 93 | 1055.4 |
| 20260503223216 | 12 | 292 | 9.7 | 0.0 | 0.00 | 1.55 | 0.00 | 93 | 1055.3 |
| 20260503223054 | 12 | 337 | 11.3 | 0.0 | 0.00 | 1.55 | 0.00 | 93 | 1055.3 |
| 20260503222942 | 12 | 337 | 8.0 | 0.0 | 0.00 | 1.55 | 0.00 | 93 | 1055.4 |
| 20260503222828 | 12 | 270 | 11.3 | 0.0 | 0.00 | 1.55 | 0.00 | 93 | 1055.4 |
| 20260503222715 | 12 | 315 | 12.9 | 0.0 | 0.00 | 1.55 | 0.00 | 93 | 1055.3 |
| 20260503222603 | 12 | 315 | 1.6 | 0.0 | 0.00 | 1.55 | 0.00 | 93 | 1055.2 |
| 20260503222449 | 12 | 315 | 6.4 | 0.0 | 0.00 | 1.55 | 0.00 | 93 | 1055.3 |
| 20260503222338 | 12 | 270 | 16.1 | 0.0 | 0.00 | 1.55 | 0.00 | 93 | 1055.3 |
| 20260503222231 | 12 | 292 | 9.7 | 0.0 | 0.00 | 1.55 | 0.00 | 93 | 1055.3 |
| 20260503222125 | 12 | 292 | 22.5 | 0.0 | 0.00 | 1.55 | 0.00 | 93 | 1055.3 |
| 20260503222007 | 12 | 270 | 3.2 | 0.0 | 0.00 | 1.55 | 0.00 | 93 | 1055.3 |
| 20260503221859 | 12 | 292 | 6.4 | 0.0 | 0.00 | 1.55 | 0.00 | 93 | 1055.3 |
| 20260503221737 | 12 | 315 | 24.1 | 0.0 | 0.00 | 1.55 | 0.00 | 93 | 1055.3 |
| 20260503221616 | 13 | 292 | 9.7 | 0.0 | 0.00 | 1.55 | 0.00 | 93 | 1055.3 |
| 20260503221455 | 13 | 292 | 9.7 | 0.0 | 0.00 | 1.55 | 0.00 | 93 | 1055.3 |
| 20260503221318 | 13 | 292 | 17.7 | 0.0 | 0.00 | 1.55 | 0.00 | 93 | 1055.3 |
| 20260503221149 | 13 | 270 | 9.7 | 0.0 | 0.00 | 1.55 | 0.00 | 93 | 1055.3 |
| 20260503221037 | 13 | 315 | 0.0 | 0.0 | 0.00 | 1.55 | 0.00 | 93 | 1055.2 |
| 20260503220930 | 13 | 225 | 12.9 | 0.0 | 0.00 | 1.55 | 0.00 | 93 | 1055.2 |
| 20260503220802 | 13 | 292 | 9.7 | 0.0 | 0.00 | 1.55 | 0.00 | 93 | 1055.3 |
| 20260503220659 | 13 | 315 | 12.9 | 0.0 | 0.00 | 1.55 | 0.00 | 93 | 1055.2 |
| 20260503220553 | 13 | 292 | 9.7 | 0.0 | 0.00 | 1.55 | 0.00 | 93 | 1055.3 |
| 20260503220438 | 13 | 270 | 9.7 | 0.0 | 0.00 | 1.55 | 0.00 | 93 | 1055.4 |
| 20260503220324 | 13 | 270 | 1.6 | 0.0 | 0.00 | 1.55 | 0.00 | 93 | 1055.3 |
| 20260503220212 | 13 | 292 | 11.3 | 0.0 | 0.00 | 1.55 | 0.00 | 93 | 1055.3 |
| 20260503220058 | 13 | 292 | 6.4 | 0.0 | 0.00 | 1.55 | 0.00 | 93 | 1055.3 |
| 20260503215946 | 13 | 315 | 11.3 | 0.0 | 0.00 | 1.55 | 0.00 | 93 | 1055.3 |
| 20260503215840 | 13 | 270 | 11.3 | 0.0 | 0.00 | 1.55 | 0.00 | 93 | 1055.2 |
| 20260503215728 | 13 | 292 | 6.4 | 0.0 | 0.00 | 1.55 | 0.00 | 93 | 1055.3 |
| 20260503215606 | 13 | 292 | 0.0 | 0.0 | 0.00 | 1.55 | 0.00 | 93 | 1055.2 |
| 20260503215453 | 13 | 315 | 11.3 | 0.0 | 0.00 | 1.55 | 0.00 | 93 | 1055.2 |
| 20260503215348 | 13 | 315 | 0.0 | 0.0 | 0.00 | 1.55 | 0.00 | 93 | 1055.2 |
| 20260503215227 | 13 | 270 | 9.7 | 0.0 | 0.00 | 1.55 | 0.00 | 93 | 1055.2 |
| 20260503215115 | 13 | 225 | 8.0 | 0.0 | 0.00 | 1.55 | 0.00 | 93 | 1055.2 |
| 20260503215011 | 13 | 292 | 8.0 | 0.0 | 0.00 | 1.55 | 0.00 | 93 | 1055.2 |
| 20260503214905 | 13 | 315 | 14.5 | 0.0 | 0.00 | 1.55 | 0.00 | 93 | 1055.1 |
| 20260503214759 | 13 | 247 | 1.6 | 0.0 | 0.00 | 1.55 | 0.00 | 93 | 1055.1 |
| 20260503214646 | 13 | 292 | 9.7 | 0.0 | 0.00 | 1.55 | 0.00 | 93 | 1055.1 |
| 20260503214541 | 13 | 292 | 6.4 | 0.0 | 0.00 | 1.55 | 0.00 | 93 | 1055.0 |
| 20260503214435 | 13 | 315 | 11.3 | 0.0 | 0.00 | 1.55 | 0.00 | 93 | 1055.1 |
| 20260503214258 | 13 | 292 | 6.4 | 0.0 | 0.00 | 1.55 | 0.00 | 93 | 1055.0 |
| 20260503214154 | 13 | 315 | 16.1 | 0.0 | 0.00 | 1.55 | 0.00 | 93 | 1055.1 |
| 20260503214049 | 13 | 315 | 12.9 | 0.0 | 0.00 | 1.55 | 0.00 | 93 | 1055.1 |
| 20260503213943 | 13 | 292 | 17.7 | 0.0 | 0.00 | 1.55 | 0.00 | 93 | 1055.1 |
| 20260503213822 | 13 | 315 | 12.9 | 0.0 | 0.00 | 1.55 | 0.00 | 93 | 1055.1 |
| 20260503213701 | 13 | 270 | 6.4 | 0.0 | 0.00 | 1.55 | 0.00 | 93 | 1055.1 |
| 20260503213556 | 13 | 292 | 16.1 | 0.0 | 0.00 | 1.55 | 0.00 | 93 | 1055.1 |
| 20260503213450 | 13 | 315 | 11.3 | 0.0 | 0.00 | 1.55 | 0.00 | 93 | 1055.1 |
| 20260503213322 | 13 | 292 | 0.0 | 0.0 | 0.00 | 1.55 | 0.00 | 93 | 1055.1 |
| 20260503213208 | 13 | 292 | 12.9 | 0.0 | 0.00 | 1.55 | 0.00 | 93 | 1055.1 |
| 20260503213103 | 13 | 292 | 6.4 | 0.0 | 0.00 | 1.55 | 0.00 | 93 | 1055.1 |
| 20260503212950 | 13 | 337 | 9.7 | 0.0 | 0.00 | 1.55 | 0.00 | 93 | 1055.1 |
| 20260503212831 | 13 | 270 | 0.0 | 0.0 | 0.00 | 1.55 | 0.00 | 93 | 1055.0 |
| 20260503212724 | 13 | 315 | 0.0 | 0.0 | 0.00 | 1.55 | 0.00 | 93 | 1055.0 |
| 20260503212611 | 13 | 292 | 20.9 | 0.0 | 0.00 | 1.55 | 0.00 | 93 | 1055.0 |
| 20260503212506 | 13 | 270 | 11.3 | 0.0 | 0.00 | 1.55 | 0.00 | 93 | 1055.1 |
| 20260503212352 | 13 | 315 | 9.7 | 0.0 | 0.00 | 1.55 | 0.00 | 93 | 1055.0 |
| 20260503212233 | 13 | 315 | 9.7 | 0.0 | 0.00 | 1.55 | 0.00 | 93 | 1055.0 |
| 20260503212126 | 13 | 292 | 9.7 | 0.0 | 0.00 | 1.55 | 0.00 | 93 | 1055.1 |
| 20260503212014 | 13 | 292 | 0.0 | 0.0 | 0.00 | 1.55 | 0.00 | 93 | 1055.0 |
| 20260503211908 | 13 | 247 | 11.3 | 0.0 | 0.00 | 1.55 | 0.00 | 93 | 1055.1 |
| 20260503211803 | 13 | 315 | 0.0 | 0.0 | 0.00 | 1.55 | 0.00 | 93 | 1055.1 |
| 20260503211650 | 13 | 292 | 12.9 | 0.0 | 0.00 | 1.55 | 0.00 | 93 | 1055.2 |
| 20260503211539 | 13 | 270 | 6.4 | 0.0 | 0.00 | 1.55 | 0.00 | 93 | 1055.2 |
| 20260503211433 | 13 | 292 | 0.0 | 0.0 | 0.00 | 1.55 | 0.00 | 93 | 1055.1 |
| 20260503211319 | 13 | 292 | 0.0 | 0.0 | 0.00 | 1.55 | 0.00 | 93 | 1055.1 |
| 20260503211159 | 13 | 270 | 0.0 | 0.0 | 0.00 | 1.55 | 0.00 | 93 | 1055.2 |
| 20260503211044 | 13 | 270 | 11.3 | 0.0 | 0.00 | 1.55 | 0.00 | 93 | 1055.1 |
| 20260503210925 | 13 | 315 | 0.0 | 0.0 | 0.00 | 1.55 | 0.00 | 93 | 1055.2 |
| 20260503210818 | 13 | 270 | 16.1 | 0.0 | 0.00 | 1.55 | 0.00 | 93 | 1055.1 |
| 20260503210706 | 13 | 270 | 9.7 | 0.0 | 0.00 | 1.55 | 0.00 | 93 | 1055.1 |
| 20260503210602 | 13 | 292 | 0.0 | 0.0 | 0.00 | 1.55 | 0.00 | 93 | 1055.1 |
| 20260503210457 | 13 | 270 | 0.0 | 0.0 | 0.00 | 1.55 | 0.00 | 93 | 1055.2 |
| 20260503210344 | 13 | 315 | 12.9 | 0.0 | 0.00 | 1.55 | 0.00 | 93 | 1055.1 |
| 20260503210237 | 13 | 292 | 0.0 | 0.0 | 0.00 | 1.55 | 0.00 | 93 | 1055.2 |
| 20260503210132 | 13 | 292 | 0.0 | 0.0 | 0.00 | 1.55 | 0.00 | 93 | 1055.2 |
| 20260503210019 | 13 | 292 | 0.0 | 0.0 | 0.00 | 1.55 | 0.00 | 93 | 1055.1 |
| 20260503205906 | 13 | 270 | 0.0 | 0.0 | 0.00 | 1.55 | 0.00 | 93 | 1055.2 |
| 20260503205801 | 13 | 292 | 0.0 | 0.0 | 0.00 | 1.55 | 0.00 | 93 | 1055.2 |
| 20260503205649 | 13 | 315 | 8.0 | 0.0 | 0.00 | 1.55 | 0.00 | 93 | 1055.2 |
| 20260503205534 | 13 | 337 | 0.0 | 0.0 | 0.00 | 1.55 | 0.00 | 93 | 1055.2 |
| 20260503205421 | 13 | 270 | 0.0 | 0.0 | 0.00 | 1.55 | 0.00 | 93 | 1055.2 |
| 20260503205300 | 13 | 292 | 0.0 | 0.0 | 0.00 | 1.55 | 0.00 | 93 | 1055.2 |
| 20260503205147 | 13 | 270 | 11.3 | 0.0 | 0.00 | 1.55 | 0.00 | 93 | 1055.1 |
| 20260503205036 | 13 | 292 | 0.0 | 0.0 | 0.00 | 1.55 | 0.00 | 93 | 1055.1 |
| 20260503204930 | 13 | 270 | 0.0 | 0.0 | 0.00 | 1.55 | 0.00 | 93 | 1055.1 |
| 20260503204817 | 13 | 270 | 0.0 | 0.0 | 0.00 | 1.55 | 0.00 | 93 | 1055.1 |
| 20260503204711 | 13 | 315 | 0.0 | 0.0 | 0.00 | 1.55 | 0.00 | 93 | 1055.0 |
| 20260503204605 | 13 | 292 | 0.0 | 0.0 | 0.00 | 1.55 | 0.00 | 93 | 1055.1 |
| 20260503204436 | 13 | 292 | 0.0 | 0.0 | 0.00 | 1.55 | 0.00 | 93 | 1055.1 |
| 20260503204323 | 13 | 270 | 0.0 | 0.0 | 0.00 | 1.55 | 0.00 | 93 | 1055.1 |
| 20260503204210 | 13 | 270 | 0.0 | 0.0 | 0.00 | 1.55 | 0.00 | 93 | 1055.1 |
| 20260503204049 | 13 | 292 | 0.0 | 0.0 | 0.00 | 1.55 | 0.00 | 93 | 1055.2 |
| 20260503203944 | 13 | 292 | 0.0 | 0.0 | 0.00 | 1.55 | 0.00 | 93 | 1055.1 |
| 20260503203831 | 13 | 292 | 0.0 | 0.0 | 0.00 | 1.55 | 0.00 | 93 | 1055.0 |
| 20260503203726 | 13 | 270 | 0.0 | 0.0 | 0.00 | 1.55 | 0.00 | 93 | 1055.1 |
| 20260503203612 | 13 | 270 | 0.0 | 0.0 | 0.00 | 1.55 | 0.00 | 93 | 1055.1 |
| 20260503203459 | 13 | 292 | 0.0 | 0.0 | 0.00 | 1.55 | 0.00 | 93 | 1055.0 |
| 20260503203338 | 13 | 270 | 0.0 | 0.0 | 0.00 | 1.55 | 0.00 | 93 | 1055.0 |
| 20260503203225 | 13 | 247 | 0.0 | 0.0 | 0.00 | 1.55 | 0.00 | 93 | 1055.1 |
| 20260503203112 | 13 | 270 | 0.0 | 0.0 | 0.00 | 1.55 | 0.00 | 93 | 1055.0 |
| 20260503202950 | 13 | 337 | 0.0 | 0.0 | 0.00 | 1.55 | 0.00 | 93 | 1055.0 |
| 20260503202829 | 13 | 315 | 0.0 | 0.0 | 0.00 | 1.55 | 0.00 | 93 | 1055.1 |
| 20260503202719 | 13 | 270 | 0.0 | 0.0 | 0.00 | 1.55 | 0.00 | 93 | 1055.1 |
| 20260503202612 | 13 | 292 | 0.0 | 0.0 | 0.00 | 1.55 | 0.00 | 93 | 1055.1 |
| 20260503202506 | 13 | 270 | 0.0 | 0.0 | 0.00 | 1.55 | 0.00 | 93 | 1055.0 |
| 20260503202353 | 13 | 292 | 6.4 | 0.0 | 0.00 | 1.55 | 0.00 | 93 | 1055.0 |
| 20260503202249 | 13 | 270 | 0.0 | 0.0 | 0.00 | 1.55 | 0.00 | 93 | 1055.0 |
| 20260503202143 | 13 | 270 | 0.0 | 0.0 | 0.00 | 1.55 | 0.00 | 93 | 1055.0 |
| 20260503202030 | 13 | 270 | 0.0 | 0.0 | 0.00 | 1.55 | 0.00 | 93 | 1055.0 |
| 20260503201910 | 13 | 270 | 0.0 | 0.0 | 0.00 | 1.55 | 0.00 | 93 | 1055.0 |
| 20260503201806 | 13 | 292 | 0.0 | 0.0 | 0.00 | 1.55 | 0.00 | 93 | 1055.0 |
| 20260503201659 | 13 | 292 | 0.0 | 0.0 | 0.00 | 1.55 | 0.00 | 93 | 1055.0 |
| 20260503201545 | 13 | 270 | 0.0 | 0.0 | 0.00 | 1.55 | 0.00 | 93 | 1055.0 |
| 20260503201433 | 13 | 270 | 0.0 | 0.0 | 0.00 | 1.55 | 0.00 | 93 | 1055.0 |
| 20260503201312 | 13 | 270 | 0.0 | 0.0 | 0.00 | 1.55 | 0.00 | 93 | 1055.0 |
| 20260503201158 | 13 | 292 | 0.0 | 0.0 | 0.00 | 1.55 | 0.00 | 93 | 1055.0 |
| 20260503201047 | 13 | 270 | 0.0 | 0.0 | 0.00 | 1.55 | 0.00 | 93 | 1055.0 |
| 20260503200940 | 13 | 270 | 0.0 | 0.0 | 0.00 | 1.55 | 0.00 | 93 | 1055.0 |
| 20260503200837 | 13 | 292 | 0.0 | 0.0 | 0.00 | 1.55 | 0.00 | 93 | 1055.0 |
| 20260503200722 | 13 | 292 | 0.0 | 0.0 | 0.00 | 1.55 | 0.00 | 93 | 1055.0 |
| 20260503200608 | 13 | 292 | 0.0 | 0.0 | 0.00 | 1.55 | 0.00 | 93 | 1055.0 |
| 20260503200456 | 13 | 270 | 0.0 | 0.0 | 0.00 | 1.55 | 0.00 | 93 | 1055.0 |
| 20260503200350 | 13 | 270 | 0.0 | 0.0 | 0.00 | 1.55 | 0.00 | 93 | 1055.1 |
| 20260503200240 | 13 | 270 | 0.0 | 0.0 | 0.00 | 1.55 | 0.00 | 93 | 1055.1 |
| 20260503200133 | 13 | 292 | 8.0 | 0.0 | 0.00 | 1.55 | 0.00 | 93 | 1055.0 |
| 20260503200020 | 13 | 270 | 0.0 | 0.0 | 0.00 | 1.55 | 0.00 | 93 | 1055.1 |
| 20260503195859 | 13 | 292 | 0.0 | 0.0 | 0.00 | 1.55 | 0.00 | 93 | 1055.0 |
| 20260503195753 | 13 | 270 | 0.0 | 0.0 | 0.00 | 1.55 | 0.00 | 93 | 1054.9 |
| 20260503195640 | 13 | 292 | 0.0 | 0.0 | 0.00 | 1.55 | 0.00 | 93 | 1055.0 |
| 20260503195535 | 13 | 270 | 0.0 | 0.0 | 0.00 | 1.55 | 0.00 | 93 | 1054.9 |
| 20260503195414 | 13 | 270 | 0.0 | 0.0 | 0.00 | 1.55 | 0.00 | 93 | 1054.9 |
| 20260503195300 | 13 | 270 | 0.0 | 0.0 | 0.00 | 1.55 | 0.00 | 93 | 1054.9 |
| 20260503195131 | 13 | 247 | 0.0 | 0.0 | 0.00 | 1.55 | 0.00 | 93 | 1054.8 |
| 20260503195010 | 13 | 270 | 0.0 | 0.0 | 0.00 | 1.55 | 0.00 | 93 | 1054.9 |
| 20260503194850 | 13 | 292 | 0.0 | 0.0 | 0.00 | 1.55 | 0.00 | 93 | 1054.9 |
| 20260503194736 | 13 | 270 | 6.4 | 0.0 | 0.00 | 1.55 | 0.00 | 93 | 1054.8 |
| 20260503194631 | 13 | 315 | 0.0 | 0.0 | 0.00 | 1.55 | 0.00 | 93 | 1054.8 |
| 20260503194527 | 13 | 315 | 0.0 | 0.0 | 0.00 | 1.55 | 0.00 | 93 | 1054.8 |
| 20260503194421 | 13 | 292 | 0.0 | 0.0 | 0.00 | 1.55 | 0.00 | 93 | 1054.7 |
| 20260503194317 | 13 | 292 | 0.0 | 0.0 | 0.00 | 1.55 | 0.00 | 93 | 1054.7 |
| 20260503194210 | 13 | 292 | 0.0 | 0.0 | 0.00 | 1.55 | 0.00 | 93 | 1054.8 |
| 20260503194050 | 13 | 315 | 0.0 | 0.0 | 0.00 | 1.55 | 0.00 | 93 | 1054.8 |
| 20260503193937 | 13 | 292 | 0.0 | 0.0 | 0.00 | 1.55 | 0.00 | 93 | 1054.8 |
| 20260503193834 | 13 | 270 | 0.0 | 0.0 | 0.00 | 1.55 | 0.00 | 93 | 1054.8 |
| 20260503193726 | 13 | 292 | 0.0 | 0.0 | 0.00 | 1.55 | 0.00 | 93 | 1054.8 |
| 20260503193606 | 13 | 292 | 0.0 | 0.0 | 0.00 | 1.55 | 0.00 | 93 | 1054.8 |
| 20260503193455 | 13 | 292 | 0.0 | 0.0 | 0.00 | 1.55 | 0.00 | 93 | 1054.6 |
| 20260503193346 | 13 | 292 | 0.0 | 0.0 | 0.00 | 1.55 | 0.00 | 93 | 1054.7 |
| 20260503193226 | 13 | 292 | 0.0 | 0.0 | 0.00 | 1.55 | 0.00 | 93 | 1054.6 |
| 20260503193114 | 13 | 315 | 0.0 | 0.0 | 0.05 | 1.55 | 0.00 | 93 | 1054.6 |
| 20260503192959 | 13 | 315 | 0.0 | 0.0 | 0.05 | 1.55 | 0.00 | 93 | 1054.6 |
| 20260503192847 | 13 | 315 | 0.0 | 0.0 | 0.05 | 1.55 | 0.00 | 93 | 1054.5 |
| 20260503192717 | 13 | 292 | 0.0 | 0.0 | 0.05 | 1.55 | 0.00 | 93 | 1054.6 |
| 20260503192606 | 13 | 292 | 3.2 | 0.0 | 0.05 | 1.55 | 0.00 | 93 | 1054.5 |
| 20260503192459 | 13 | 292 | 0.0 | 0.0 | 0.05 | 1.55 | 0.00 | 92 | 1054.6 |
| 20260503192346 | 13 | 292 | 8.0 | 0.0 | 0.05 | 1.55 | 0.00 | 93 | 1054.4 |
| 20260503192233 | 13 | 292 | 0.0 | 0.0 | 0.05 | 1.55 | 0.00 | 92 | 1054.6 |
| 20260503192113 | 13 | 292 | 0.0 | 0.0 | 0.05 | 1.55 | 0.00 | 92 | 1054.5 |
| 20260503191958 | 13 | 292 | 8.0 | 0.0 | 0.05 | 1.55 | 0.00 | 92 | 1054.5 |
| 20260503191839 | 13 | 292 | 0.0 | 0.0 | 0.05 | 1.55 | 0.00 | 92 | 1054.5 |
| 20260503191724 | 13 | 337 | 0.0 | 0.0 | 0.05 | 1.55 | 0.00 | 92 | 1054.4 |
| 20260503191610 | 13 | 270 | 0.0 | 0.0 | 0.05 | 1.55 | 0.00 | 92 | 1054.4 |
| 20260503191441 | 13 | 270 | 0.0 | 0.0 | 0.05 | 1.55 | 0.00 | 92 | 1054.4 |
| 20260503191312 | 13 | 292 | 0.0 | 0.0 | 0.05 | 1.55 | 0.00 | 92 | 1054.4 |
| 20260503191151 | 13 | 270 | 0.0 | 0.0 | 0.05 | 1.55 | 0.00 | 92 | 1054.4 |
| 20260503191047 | 13 | 315 | 0.0 | 0.0 | 0.05 | 1.55 | 0.00 | 92 | 1054.4 |
| 20260503190942 | 13 | 292 | 6.4 | 0.0 | 0.05 | 1.55 | 0.00 | 92 | 1054.4 |
| 20260503190836 | 13 | 292 | 0.0 | 0.0 | 0.05 | 1.55 | 0.00 | 92 | 1054.4 |
| 20260503190716 | 13 | 270 | 0.0 | 0.0 | 0.05 | 1.55 | 0.00 | 92 | 1054.4 |
| 20260503190602 | 13 | 270 | 0.0 | 0.0 | 0.05 | 1.55 | 0.00 | 92 | 1054.3 |
| 20260503190448 | 13 | 292 | 0.0 | 0.0 | 0.05 | 1.55 | 0.00 | 93 | 1054.3 |
| 20260503190319 | 13 | 270 | 0.0 | 0.0 | 0.05 | 1.55 | 0.00 | 93 | 1054.3 |
| 20260503190200 | 13 | 270 | 0.0 | 0.0 | 0.05 | 1.55 | 0.00 | 93 | 1054.3 |
| 20260503190045 | 14 | 270 | 0.0 | 0.0 | 0.05 | 1.55 | 0.00 | 93 | 1054.3 |
| 20260503185924 | 14 | 315 | 0.0 | 0.0 | 0.05 | 1.55 | 0.00 | 93 | 1054.3 |
| 20260503185818 | 14 | 270 | 8.0 | 0.0 | 0.05 | 1.55 | 0.00 | 93 | 1054.3 |
| 20260503185649 | 14 | 292 | 0.0 | 0.0 | 0.05 | 1.55 | 0.00 | 92 | 1054.3 |
| 20260503185536 | 14 | 292 | 0.0 | 0.0 | 0.05 | 1.55 | 0.00 | 92 | 1054.2 |
| 20260503185424 | 14 | 292 | 0.0 | 0.0 | 0.05 | 1.55 | 0.00 | 92 | 1054.2 |
| 20260503185309 | 14 | 315 | 0.0 | 0.0 | 0.05 | 1.55 | 0.00 | 92 | 1054.2 |
| 20260503185149 | 14 | 270 | 6.4 | 0.0 | 0.05 | 1.55 | 0.00 | 92 | 1054.1 |
| 20260503185027 | 14 | 292 | 0.0 | 0.0 | 0.05 | 1.55 | 0.00 | 92 | 1054.2 |
| 20260503184859 | 14 | 270 | 0.0 | 0.0 | 0.05 | 1.55 | 0.00 | 92 | 1054.2 |
| 20260503184746 | 14 | 270 | 4.8 | 0.0 | 0.05 | 1.55 | 0.00 | 93 | 1054.2 |
| 20260503184632 | 14 | 315 | 6.4 | 0.0 | 0.05 | 1.55 | 0.00 | 93 | 1054.2 |
| 20260503184521 | 14 | 270 | 0.0 | 0.0 | 0.05 | 1.55 | 0.00 | 92 | 1054.2 |
| 20260503184413 | 14 | 292 | 9.7 | 0.0 | 0.05 | 1.55 | 0.00 | 93 | 1054.2 |
| 20260503184244 | 14 | 292 | 0.0 | 0.0 | 0.05 | 1.55 | 0.00 | 93 | 1054.3 |
| 20260503184131 | 14 | 292 | 0.0 | 0.0 | 0.05 | 1.55 | 0.00 | 93 | 1054.2 |
| 20260503184010 | 14 | 270 | 0.0 | 0.0 | 0.05 | 1.55 | 0.00 | 93 | 1054.3 |
| 20260503183857 | 14 | 337 | 0.0 | 0.0 | 0.05 | 1.55 | 0.00 | 93 | 1054.3 |
| 20260503183743 | 14 | 292 | 11.3 | 0.0 | 0.05 | 1.55 | 0.00 | 93 | 1054.2 |
| 20260503183623 | 14 | 247 | 0.0 | 0.0 | 0.05 | 1.55 | 0.00 | 93 | 1054.3 |
| 20260503183519 | 14 | 270 | 0.0 | 0.0 | 0.05 | 1.55 | 0.00 | 93 | 1054.3 |
| 20260503183412 | 14 | 292 | 0.0 | 0.0 | 0.00 | 1.50 | 0.00 | 93 | 1054.3 |
| 20260503183252 | 14 | 270 | 0.0 | 0.0 | 0.00 | 1.50 | 0.00 | 93 | 1054.2 |
| 20260503183146 | 14 | 292 | 0.0 | 0.0 | 0.00 | 1.50 | 0.00 | 92 | 1054.3 |
| 20260503183025 | 14 | 292 | 0.0 | 0.0 | 0.00 | 1.50 | 0.00 | 93 | 1054.2 |
| 20260503182903 | 14 | 292 | 0.0 | 0.0 | 0.00 | 1.50 | 0.00 | 92 | 1054.1 |
| 20260503182750 | 14 | 315 | 0.0 | 0.0 | 0.00 | 1.50 | 0.00 | 93 | 1054.1 |
| 20260503182629 | 15 | 270 | 0.0 | 0.0 | 0.00 | 1.50 | 0.00 | 92 | 1054.2 |
| 20260503182507 | 15 | 292 | 0.0 | 0.0 | 0.00 | 1.50 | 0.00 | 92 | 1054.2 |
| 20260503182339 | 15 | 292 | 0.0 | 0.0 | 0.00 | 1.50 | 0.00 | 92 | 1054.1 |
| 20260503182219 | 15 | 292 | 0.0 | 0.0 | 0.00 | 1.50 | 0.00 | 92 | 1054.2 |
| 20260503182114 | 15 | 292 | 0.0 | 0.0 | 0.00 | 1.50 | 0.00 | 92 | 1054.1 |
| 20260503182009 | 15 | 292 | 0.0 | 0.0 | 0.00 | 1.50 | 0.00 | 92 | 1054.1 |
| 20260503181854 | 15 | 315 | 0.0 | 0.0 | 0.00 | 1.50 | 0.00 | 92 | 1054.1 |
| 20260503181742 | 15 | 292 | 0.0 | 0.0 | 0.00 | 1.50 | 0.00 | 92 | 1054.1 |
| 20260503181629 | 15 | 270 | 0.0 | 0.0 | 0.00 | 1.50 | 0.00 | 92 | 1054.1 |
| 20260503181516 | 15 | 270 | 0.0 | 0.0 | 0.00 | 1.50 | 0.00 | 92 | 1054.0 |
| 20260503181412 | 15 | 270 | 0.0 | 0.0 | 0.00 | 1.50 | 0.00 | 92 | 1054.0 |
| 20260503181305 | 15 | 270 | 0.0 | 0.0 | 0.00 | 1.50 | 0.00 | 92 | 1054.0 |
| 20260503181143 | 15 | 270 | 0.0 | 0.0 | 0.00 | 1.50 | 0.00 | 92 | 1054.0 |
| 20260503181022 | 15 | 270 | 0.0 | 0.0 | 0.00 | 1.50 | 0.00 | 92 | 1054.1 |
| 20260503180909 | 15 | 270 | 0.0 | 0.0 | 0.00 | 1.50 | 0.00 | 92 | 1054.1 |
| 20260503180755 | 15 | 270 | 0.0 | 0.0 | 0.00 | 1.50 | 0.00 | 92 | 1054.0 |
| 20260503180636 | 15 | 247 | 0.0 | 0.0 | 0.00 | 1.50 | 0.00 | 92 | 1054.1 |
| 20260503180529 | 15 | 270 | 0.0 | 0.0 | 0.00 | 1.50 | 0.00 | 92 | 1054.1 |
| 20260503180408 | 15 | 247 | 0.0 | 0.0 | 0.00 | 1.50 | 0.00 | 92 | 1054.1 |
| 20260503180239 | 15 | 202 | 0.0 | 0.0 | 0.00 | 1.50 | 0.00 | 92 | 1054.1 |
| 20260503180128 | 15 | 202 | 0.0 | 0.0 | 0.00 | 1.50 | 0.00 | 92 | 1054.1 |
| 20260503180021 | 15 | 202 | 0.0 | 0.0 | 0.00 | 1.50 | 0.00 | 92 | 1054.1 |
| 20260503175854 | 15 | 202 | 0.0 | 0.0 | 0.00 | 1.50 | 0.00 | 92 | 1054.0 |
| 20260503175747 | 15 | 202 | 0.0 | 0.0 | 0.00 | 1.50 | 0.00 | 92 | 1054.1 |
| 20260503175633 | 15 | 202 | 0.0 | 0.0 | 0.00 | 1.50 | 0.00 | 92 | 1054.1 |
| 20260503175514 | 15 | 202 | 0.0 | 0.0 | 0.00 | 1.50 | 0.00 | 92 | 1054.1 |
| 20260503175401 | 15 | 202 | 0.0 | 0.0 | 0.00 | 1.50 | 0.00 | 92 | 1054.0 |
| 20260503175254 | 15 | 202 | 0.0 | 0.0 | 0.00 | 1.50 | 0.00 | 92 | 1054.0 |
| 20260503175140 | 15 | 202 | 0.0 | 0.0 | 0.00 | 1.50 | 0.00 | 92 | 1053.9 |
| 20260503175020 | 14 | 202 | 0.0 | 0.0 | 0.00 | 1.50 | 0.00 | 92 | 1053.9 |
| 20260503174859 | 14 | 202 | 0.0 | 0.0 | 0.00 | 1.50 | 0.00 | 92 | 1053.9 |
| 20260503174739 | 15 | 202 | 0.0 | 0.0 | 0.05 | 1.50 | 0.00 | 92 | 1053.9 |
| 20260503174624 | 14 | 202 | 0.0 | 0.0 | 0.05 | 1.50 | 0.00 | 92 | 1053.8 |
| 20260503174511 | 14 | 202 | 0.0 | 0.0 | 0.05 | 1.50 | 0.00 | 92 | 1053.9 |
| 20260503174357 | 14 | 202 | 0.0 | 0.0 | 0.05 | 1.50 | 0.00 | 92 | 1054.0 |
| 20260503174228 | 14 | 202 | 0.0 | 0.0 | 0.05 | 1.50 | 0.00 | 92 | 1053.9 |
| 20260503174108 | 14 | 202 | 0.0 | 0.0 | 0.05 | 1.50 | 0.00 | 92 | 1053.9 |
| 20260503174002 | 14 | 225 | 0.0 | 0.0 | 0.05 | 1.50 | 0.00 | 92 | 1053.9 |
| 20260503173841 | 14 | 225 | 0.0 | 0.0 | 0.05 | 1.50 | 0.00 | 92 | 1053.9 |
| 20260503173728 | 14 | 225 | 0.0 | 0.0 | 0.05 | 1.50 | 0.00 | 92 | 1053.9 |
| 20260503173606 | 14 | 225 | 0.0 | 0.0 | 0.05 | 1.50 | 0.00 | 92 | 1053.9 |
| 20260503173447 | 14 | 225 | 0.0 | 0.0 | 0.10 | 1.50 | 0.00 | 92 | 1054.0 |
| 20260503173340 | 14 | 225 | 0.0 | 0.0 | 0.10 | 1.50 | 0.00 | 92 | 1054.0 |
| 20260503173219 | 14 | 225 | 0.0 | 0.0 | 0.10 | 1.50 | 0.00 | 92 | 1054.0 |
| 20260503173058 | 14 | 225 | 0.0 | 0.0 | 0.10 | 1.50 | 0.00 | 92 | 1054.0 |
| 20260503172936 | 14 | 225 | 0.0 | 0.0 | 0.10 | 1.50 | 0.00 | 92 | 1054.0 |
| 20260503172823 | 14 | 225 | 0.0 | 0.0 | 0.10 | 1.50 | 0.00 | 92 | 1053.9 |
| 20260503172654 | 14 | 225 | 0.0 | 0.0 | 0.10 | 1.50 | 0.00 | 92 | 1054.0 |
| 20260503172541 | 14 | 225 | 0.0 | 0.0 | 0.10 | 1.50 | 0.00 | 92 | 1054.0 |
| 20260503172420 | 14 | 225 | 0.0 | 0.0 | 0.10 | 1.50 | 0.00 | 92 | 1054.0 |
| 20260503172306 | 14 | 225 | 0.0 | 0.0 | 0.10 | 1.50 | 0.00 | 92 | 1054.0 |
| 20260503172153 | 14 | 225 | 0.0 | 0.0 | 0.10 | 1.50 | 0.00 | 92 | 1054.0 |
| 20260503172024 | 14 | 225 | 0.0 | 0.0 | 0.10 | 1.50 | 0.00 | 92 | 1054.0 |
| 20260503171910 | 14 | 225 | 0.0 | 0.0 | 0.10 | 1.50 | 0.00 | 92 | 1053.9 |
| 20260503171741 | 14 | 225 | 0.0 | 0.0 | 0.10 | 1.50 | 0.00 | 92 | 1053.9 |
| 20260503171613 | 14 | 225 | 0.0 | 0.0 | 0.10 | 1.50 | 0.00 | 92 | 1053.8 |
| 20260503171510 | 14 | 225 | 0.0 | 0.0 | 0.10 | 1.50 | 0.00 | 92 | 1053.9 |
| 20260503171405 | 14 | 225 | 0.0 | 0.0 | 0.10 | 1.50 | 0.00 | 92 | 1053.9 |
| 20260503171258 | 14 | 225 | 0.0 | 0.0 | 0.10 | 1.50 | 0.00 | 92 | 1053.9 |
| 20260503171144 | 14 | 315 | 0.0 | 0.0 | 0.10 | 1.50 | 0.00 | 92 | 1053.9 |
| 20260503171030 | 14 | 315 | 0.0 | 0.0 | 0.10 | 1.50 | 0.00 | 92 | 1053.9 |
| 20260503170912 | 14 | 0 | 0.0 | 0.0 | 0.10 | 1.50 | 0.00 | 92 | 1053.9 |
| 20260503170757 | 14 | 0 | 0.0 | 0.0 | 0.15 | 1.50 | 0.00 | 92 | 1053.8 |
| 20260503170646 | 14 | 0 | 0.0 | 0.0 | 0.15 | 1.50 | 0.00 | 92 | 1053.9 |
| 20260503170538 | 14 | 0 | 0.0 | 0.0 | 0.15 | 1.50 | 0.00 | 92 | 1053.9 |
| 20260503170426 | 14 | 0 | 0.0 | 0.0 | 0.15 | 1.50 | 0.00 | 92 | 1053.9 |
| 20260503170313 | 14 | 0 | 0.0 | 0.0 | 0.15 | 1.50 | 0.00 | 92 | 1053.9 |
| 20260503170202 | 14 | 0 | 0.0 | 0.0 | 0.15 | 1.50 | 0.00 | 92 | 1053.9 |
| 20260503160113 | 14 | 67 | 0.0 | 0.0 | 0.05 | 1.35 | 0.00 | 91 | 1053.7 |
| 20260503150919 | 14 | 45 | 0.0 | 0.0 | 0.79 | 1.30 | 0.00 | 92 | 1054.0 |
| 20260503150805 | 14 | 22 | 0.0 | 0.0 | 0.79 | 1.30 | 0.00 | 92 | 1054.0 |
| 20260503150654 | 14 | 45 | 0.0 | 0.0 | 0.79 | 1.30 | 0.00 | 92 | 1053.9 |
| 20260503150549 | 14 | 45 | 0.0 | 0.0 | 0.79 | 1.30 | 0.00 | 92 | 1054.0 |
| 20260503150444 | 14 | 22 | 0.0 | 0.0 | 0.79 | 1.30 | 0.00 | 92 | 1053.9 |
| 20260503150338 | 14 | 22 | 0.0 | 0.0 | 0.84 | 1.30 | 0.00 | 92 | 1054.0 |
| 20260503150233 | 14 | 0 | 16.1 | 0.0 | 0.84 | 1.30 | 0.00 | 92 | 1053.9 |
| 20260503150129 | 14 | 22 | 11.3 | 0.0 | 0.84 | 1.30 | 0.00 | 92 | 1053.9 |
| 20260503140235 | 15 | 22 | 0.0 | 0.0 | 0.00 | 0.46 | 0.00 | 88 | 1053.4 |
| 20260503140131 | 15 | 22 | 9.7 | 0.0 | 0.00 | 0.46 | 0.00 | 88 | 1053.4 |
| 20260503131409 | 17 | 0 | 6.4 | 0.0 | 0.00 | 0.46 | 0.00 | 78 | 1053.7 |
| 20260503131256 | 17 | 0 | 4.8 | 0.0 | 0.00 | 0.46 | 0.00 | 78 | 1053.7 |
| 20260503131150 | 17 | 22 | 6.4 | 0.0 | 0.00 | 0.46 | 0.00 | 77 | 1053.7 |
| 20260503131036 | 18 | 22 | 8.0 | 0.0 | 0.00 | 0.46 | 0.00 | 77 | 1053.8 |
| 20260503130924 | 18 | 0 | 8.0 | 0.0 | 0.00 | 0.46 | 0.00 | 76 | 1053.7 |
| 20260503130819 | 18 | 22 | 11.3 | 0.0 | 0.00 | 0.46 | 0.00 | 76 | 1053.9 |
| 20260503130657 | 18 | 0 | 12.9 | 0.0 | 0.00 | 0.46 | 0.00 | 75 | 1053.9 |
| 20260503130537 | 18 | 22 | 4.8 | 0.0 | 0.00 | 0.46 | 0.00 | 75 | 1054.0 |
| 20260503130434 | 18 | 45 | 9.7 | 0.0 | 0.00 | 0.46 | 0.00 | 74 | 1054.0 |
| 20260503130327 | 18 | 337 | 12.9 | 0.0 | 0.00 | 0.46 | 0.00 | 75 | 1054.0 |
| 20260503130222 | 19 | 0 | 0.0 | 0.0 | 0.00 | 0.46 | 0.00 | 74 | 1054.2 |
| 20260503130108 | 19 | 22 | 9.7 | 0.0 | 0.00 | 0.46 | 0.00 | 73 | 1054.1 |
| 20260503120132 | 21 | 45 | 14.5 | 0.0 | 0.00 | 0.46 | 0.00 | 72 | 1054.8 |
| 20260503110826 | 24 | 247 | 0.0 | 0.0 | 0.00 | 0.46 | 0.00 | 58 | 1055.1 |
| 20260503110704 | 24 | 247 | 0.0 | 0.0 | 0.00 | 0.46 | 0.00 | 58 | 1055.1 |
| 20260503110543 | 24 | 247 | 0.0 | 0.0 | 0.00 | 0.46 | 0.00 | 58 | 1055.2 |
| 20260503110421 | 24 | 247 | 0.0 | 0.0 | 0.00 | 0.46 | 0.00 | 58 | 1055.1 |
| 20260503110302 | 24 | 247 | 0.0 | 0.0 | 0.00 | 0.46 | 0.00 | 58 | 1055.1 |
| 20260503110148 | 24 | 247 | 6.4 | 0.0 | 0.00 | 0.46 | 0.00 | 58 | 1055.1 |